Antonito, CO (81120)

3:25 AM MDT on May 26, 2017 (GMT -0600)
Fox Creek | | Change Station

Elev 8451 ft 37.07 °N, 106.22 °W | Updated 16 seconds ago

Clear
Clear
44.0 °F
Feels Like 44 °F
N
3.0
Wind Variable Wind from West

Today
High -- | Low -- °F
--% Chance of Precip.
Yesterday
High -- | Low -- °F
Precip. -- in
Pressure 29.74 in
Visibility 10.0 miles
Clouds Few 11000 ft
Windchill 44 °F
Dew Point 26 °F
Humidity 50%
Rainfall 0.00 in
Snow Depth Not available.
5:48 AM 8:14 PM
New Moon, 1% visible
METAR KALS 260852Z AUTO 03006KT 10SM FEW110 08/02 A3001 RMK AO2 SLP070 T00830017 50010
Pressure 29.74 in
Visibility 10.0 miles
Clouds Few 11000 ft
Windchill 44 °F
Dew Point 26 °F
Humidity 50%
Rainfall 0.00 in
Snow Depth Not available.
5:48 AM 8:14 PM
New Moon, 1% visible
METAR KALS 260852Z AUTO 03006KT 10SM FEW110 08/02 A3001 RMK AO2 SLP070 T00830017 50010

Get Severe Weather Alerts

Thanks for signing up!

Be on the lookout for a verification email in your inbox.

You'll start receiving the daily forecast at 6 AM.

×

10-Day Weather Forecast

Almanac

Astronomy

May. 26, 2017 Rise Set
Actual Time
Civil Twilight
Nautical Twilight
Astronomical Twilight
Moon
Length of Visible Light
Length of Day
Tomorrow will be .
, % of the Moon is Illuminated

Today's Extremes

State Highs State Lows

Community

WunderPhotos

Category 6

Welcome to Category 6. This is the collective home for Weather Underground's featured writeups by Dr. Jeff Masters (right), Bob Henson (left), Chris Burt, and other regular contributors.

Nearby

Air Quality

  Air Quality AQ Index Pollutant
Not available.

Snow Depth

Station Depth Elevation

Earthquake Activity

City Distance Mag. Time & Date
Minimum magnitude displayed is 2.5.

Coastal Water Temperatures

Place Temperature

Stations

Nearby Weather Stations

Station Location Temp. Windchill Dew Point Humidity Wind Precip. Elev Updated Type
                   

Watches & Warnings

There are currently no watches in effect.